ALT15 GMML-GMMN

Flight info

Callsign ALT15
Flight time 1h 11m
Altitude 38000
Route SOLNA UA600 ADM UG850 MAK UB11 MABAP UR722 FOBAC
Aircraft B77W/H-SDE1E2E3FGHIJ2J3J4J5M1RWXY/LB1D1

Departure

Time 2026-04-30 13:06
Airport Laayoune Hassan I International Airport (GMML)

Arrival

Time 2026-04-30 14:17
Airport Mohammed V International Airport (GMMN)
Time Latitude Longitude Altitude Speed Heading
2026-04-30 12:51 27.15273 -13.21797 228 ft 0 kts 301°
2026-04-30 12:54 27.15270 -13.21792 228 ft 2 kts 312°
2026-04-30 12:54 27.15260 -13.21780 228 ft 2 kts 321°
2026-04-30 12:54 27.15252 -13.21773 228 ft 1 kts 319°
2026-04-30 12:55 27.15245 -13.21761 228 ft 2 kts 263°
2026-04-30 12:55 27.15251 -13.21747 228 ft 1 kts 215°
2026-04-30 12:55 27.15256 -13.21744 228 ft 0 kts 212°
2026-04-30 12:59 27.15232 -13.21760 228 ft 7 kts 212°
2026-04-30 12:59 27.15173 -13.21801 228 ft 10 kts 208°
2026-04-30 12:59 27.15121 -13.21806 228 ft 8 kts 150°
2026-04-30 13:00 27.15071 -13.21786 228 ft 9 kts 179°
2026-04-30 13:00 27.14989 -13.21824 228 ft 16 kts 210°
2026-04-30 13:00 27.14870 -13.21904 228 ft 23 kts 211°
2026-04-30 13:00 27.14782 -13.22066 225 ft 27 kts 262°
2026-04-30 13:01 27.14814 -13.22298 223 ft 32 kts 286°
2026-04-30 13:01 27.14877 -13.22533 222 ft 30 kts 288°
2026-04-30 13:01 27.14908 -13.22678 222 ft 7 kts 271°
2026-04-30 13:01 27.14875 -13.22728 223 ft 8 kts 218°
2026-04-30 13:02 27.14792 -13.22759 222 ft 16 kts 191°
2026-04-30 13:02 27.14662 -13.22801 222 ft 22 kts 197°
2026-04-30 13:02 27.14493 -13.22856 222 ft 27 kts 196°
2026-04-30 13:02 27.14291 -13.22923 224 ft 32 kts 197°
2026-04-30 13:03 27.14061 -13.23003 225 ft 37 kts 197°
2026-04-30 13:03 27.13800 -13.23083 227 ft 39 kts 195°
2026-04-30 13:03 27.13550 -13.23166 228 ft 36 kts 193°
2026-04-30 13:03 27.13324 -13.23241 231 ft 29 kts 199°
2026-04-30 13:04 27.13198 -13.23286 231 ft 12 kts 197°
2026-04-30 13:04 27.13115 -13.23313 232 ft 11 kts 197°
2026-04-30 13:04 27.13064 -13.23357 234 ft 5 kts 237°
2026-04-30 13:04 27.13049 -13.23395 235 ft 5 kts 252°
2026-04-30 13:05 27.13038 -13.23446 235 ft 7 kts 258°
2026-04-30 13:05 27.13041 -13.23511 235 ft 8 kts 307°
2026-04-30 13:05 27.13079 -13.23522 235 ft 0 kts 12°
2026-04-30 13:06 27.13387 -13.23418 232 ft 93 kts 17°
2026-04-30 13:06 27.14276 -13.23120 418 ft 158 kts 15°
2026-04-30 13:06 27.15265 -13.22634 1311 ft 167 kts 36°
2026-04-30 13:06 27.15943 -13.21555 1930 ft 183 kts 71°
2026-04-30 13:07 27.16084 -13.20075 2463 ft 202 kts 81°
2026-04-30 13:07 27.16636 -13.18596 2982 ft 218 kts 46°
2026-04-30 13:07 27.17886 -13.17513 3545 ft 237 kts 36°
2026-04-30 13:07 27.19153 -13.16267 4188 ft 256 kts 44°
2026-04-30 13:08 27.20429 -13.14775 4979 ft 269 kts 45°
2026-04-30 13:08 27.21702 -13.13254 5904 ft 276 kts 45°
2026-04-30 13:08 27.23040 -13.11660 6818 ft 283 kts 45°
2026-04-30 13:08 27.24390 -13.10056 7760 ft 287 kts 45°
2026-04-30 13:09 27.25752 -13.08436 8721 ft 290 kts 44°
2026-04-30 13:09 27.27145 -13.06780 9583 ft 296 kts 44°
2026-04-30 13:09 27.28566 -13.05091 10471 ft 301 kts 44°
2026-04-30 13:09 27.30028 -13.03354 11075 ft 318 kts 44°
2026-04-30 13:10 27.31592 -13.01494 11706 ft 334 kts 44°
2026-04-30 13:10 27.33200 -12.99580 12397 ft 349 kts 44°
2026-04-30 13:10 27.34891 -12.97566 13306 ft 357 kts 44°
2026-04-30 13:10 27.36606 -12.95519 14318 ft 362 kts 44°
2026-04-30 13:11 27.38316 -12.93480 15323 ft 368 kts 43°
2026-04-30 13:11 27.40077 -12.91379 16310 ft 374 kts 42°
2026-04-30 13:11 27.41875 -12.89234 17318 ft 378 kts 42°
2026-04-30 13:11 27.43680 -12.87079 18266 ft 384 kts 41°
2026-04-30 13:12 27.45518 -12.84884 19217 ft 389 kts 41°
2026-04-30 13:12 27.47370 -12.82670 20103 ft 395 kts 41°
2026-04-30 13:12 27.49263 -12.80407 21025 ft 400 kts 40°
2026-04-30 13:13 27.53068 -12.75853 22831 ft 408 kts 39°
2026-04-30 13:13 27.55026 -12.73508 23624 ft 414 kts 40°
2026-04-30 13:13 27.59012 -12.68729 25303 ft 423 kts 39°
2026-04-30 13:14 27.61035 -12.66300 26181 ft 426 kts 39°
2026-04-30 13:14 27.63043 -12.63891 26931 ft 431 kts 39°
2026-04-30 13:14 27.67201 -12.58897 28390 ft 441 kts 38°
2026-04-30 13:15 27.69323 -12.56424 29130 ft 444 kts 37°
2026-04-30 13:15 27.73653 -12.51410 30070 ft 450 kts 37°
2026-04-30 13:15 27.75862 -12.48854 30081 ft 466 kts 38°
2026-04-30 13:16 27.78149 -12.46205 30079 ft 483 kts 38°
2026-04-30 13:16 27.80534 -12.43437 30078 ft 499 kts 38°
2026-04-30 13:16 27.82952 -12.40621 30078 ft 500 kts 38°
2026-04-30 13:17 27.90204 -12.32152 30065 ft 498 kts 39°
2026-04-30 13:18 27.97405 -12.23732 30070 ft 498 kts 38°
2026-04-30 13:18 28.04585 -12.15324 30071 ft 497 kts 38°
2026-04-30 13:19 28.09395 -12.09680 30064 ft 495 kts 38°
2026-04-30 13:19 28.14143 -12.04099 30079 ft 485 kts 38°
2026-04-30 13:20 28.16500 -12.01333 30082 ft 497 kts 38°
2026-04-30 13:20 28.18903 -11.98508 30080 ft 495 kts 38°
2026-04-30 13:20 28.23672 -11.92891 30077 ft 495 kts 38°
2026-04-30 13:21 28.28406 -11.87306 30078 ft 494 kts 38°
2026-04-30 13:22 28.35561 -11.78853 30076 ft 493 kts 38°
2026-04-30 13:22 28.42683 -11.70422 30076 ft 492 kts 38°
2026-04-30 13:23 28.49776 -11.62008 30077 ft 492 kts 38°
2026-04-30 13:24 28.59255 -11.50737 30075 ft 493 kts 38°
2026-04-30 13:25 28.68707 -11.39465 30074 ft 491 kts 38°
2026-04-30 13:26 28.80515 -11.25343 30069 ft 495 kts 39°
2026-04-30 13:28 28.92315 -11.11176 30061 ft 493 kts 39°
2026-04-30 13:28 28.99393 -11.02656 30059 ft 493 kts 39°
2026-04-30 13:29 29.08805 -10.91299 30064 ft 495 kts 39°
2026-04-30 13:31 29.20676 -10.76925 30055 ft 496 kts 40°
2026-04-30 13:32 29.32478 -10.62584 30065 ft 496 kts 40°
2026-04-30 13:33 29.41977 -10.51005 30064 ft 499 kts 40°
2026-04-30 13:34 29.49099 -10.42301 30062 ft 499 kts 41°
2026-04-30 13:35 29.58576 -10.30689 30052 ft 500 kts 41°
2026-04-30 13:36 29.68070 -10.19021 30054 ft 500 kts 41°
2026-04-30 13:36 29.73691 -10.12097 30053 ft 501 kts 42°
2026-04-30 13:37 29.79381 -10.05075 30054 ft 501 kts 42°
2026-04-30 13:38 29.86456 -9.96180 30061 ft 502 kts 43°
2026-04-30 13:39 29.95775 -9.84265 30055 ft 503 kts 44°
2026-04-30 13:40 30.02376 -9.75811 30054 ft 502 kts 44°
2026-04-30 13:40 30.07067 -9.69868 30056 ft 504 kts 43°
2026-04-30 13:41 30.11828 -9.63922 30054 ft 503 kts 43°
2026-04-30 13:41 30.16571 -9.57983 30054 ft 503 kts 43°
2026-04-30 13:42 30.21312 -9.52035 30046 ft 505 kts 44°
2026-04-30 13:42 30.28459 -9.43049 30057 ft 506 kts 43°
2026-04-30 13:43 30.33345 -9.37223 30046 ft 502 kts 37°
2026-04-30 13:43 30.38682 -9.31999 30034 ft 504 kts 37°
2026-04-30 13:44 30.44046 -9.26777 30034 ft 504 kts 37°
2026-04-30 13:44 30.49379 -9.21570 30025 ft 504 kts 37°
2026-04-30 13:45 30.57461 -9.13662 30055 ft 505 kts 37°
2026-04-30 13:46 30.62798 -9.08428 30092 ft 505 kts 37°
2026-04-30 13:46 30.68187 -9.03161 30115 ft 508 kts 37°
2026-04-30 13:47 30.73598 -8.97886 30135 ft 507 kts 37°
2026-04-30 13:47 30.78981 -8.92629 30140 ft 509 kts 37°
2026-04-30 13:48 30.84378 -8.87350 30159 ft 509 kts 37°
2026-04-30 13:48 30.89826 -8.82013 30171 ft 512 kts 38°
2026-04-30 13:49 30.95220 -8.76642 30192 ft 511 kts 38°
2026-04-30 13:49 31.00606 -8.71254 30211 ft 511 kts 38°
2026-04-30 13:50 31.06026 -8.65827 30206 ft 512 kts 38°
2026-04-30 13:50 31.14135 -8.57693 30193 ft 515 kts 39°
2026-04-30 13:51 31.19530 -8.52272 30179 ft 514 kts 39°
2026-04-30 13:51 31.24956 -8.46817 30148 ft 516 kts 39°
2026-04-30 13:52 31.30414 -8.41354 30136 ft 518 kts 39°
2026-04-30 13:52 31.35900 -8.35856 30120 ft 517 kts 38°
2026-04-30 13:53 31.41367 -8.30368 30102 ft 518 kts 39°
2026-04-30 13:53 31.46821 -8.24882 30087 ft 519 kts 39°
2026-04-30 13:54 31.52294 -8.19369 30067 ft 518 kts 39°
2026-04-30 13:54 31.58253 -8.14768 30060 ft 516 kts 23°
2026-04-30 13:55 31.65086 -8.12336 30058 ft 512 kts
2026-04-30 13:55 31.72156 -8.12272 30057 ft 505 kts 349°
2026-04-30 13:56 31.79052 -8.13520 30059 ft 504 kts 348°
2026-04-30 13:56 31.86003 -8.14815 30060 ft 504 kts 348°
2026-04-30 13:57 31.92871 -8.16088 29741 ft 490 kts 348°
2026-04-30 13:57 31.96195 -8.16703 28925 ft 490 kts 348°
2026-04-30 13:57 31.99588 -8.17332 27979 ft 492 kts 348°
2026-04-30 13:58 32.02949 -8.17954 27304 ft 488 kts 348°
2026-04-30 13:58 32.09546 -8.19169 26329 ft 472 kts 349°
2026-04-30 13:58 32.12798 -8.19416 25703 ft 470 kts 359°
2026-04-30 13:59 32.16044 -8.19097 25011 ft 469 kts
2026-04-30 13:59 32.19284 -8.18591 24385 ft 464 kts
2026-04-30 13:59 32.22471 -8.18078 23787 ft 459 kts
2026-04-30 13:59 32.25614 -8.17570 23175 ft 454 kts
2026-04-30 14:00 32.28698 -8.17071 22567 ft 450 kts
2026-04-30 14:00 32.34849 -8.16073 21363 ft 441 kts
2026-04-30 14:00 32.37842 -8.15587 20771 ft 436 kts
2026-04-30 14:01 32.40841 -8.15100 20161 ft 432 kts
2026-04-30 14:01 32.43813 -8.14616 19557 ft 428 kts
2026-04-30 14:01 32.46759 -8.14137 18953 ft 424 kts
2026-04-30 14:01 32.49676 -8.13661 18357 ft 420 kts
2026-04-30 14:02 32.52557 -8.13191 17767 ft 416 kts
2026-04-30 14:02 32.55405 -8.12727 17165 ft 413 kts
2026-04-30 14:02 32.58237 -8.12265 16497 ft 411 kts
2026-04-30 14:02 32.61055 -8.11805 15824 ft 409 kts
2026-04-30 14:03 32.63876 -8.11344 15247 ft 405 kts
2026-04-30 14:03 32.66622 -8.10894 14667 ft 402 kts
2026-04-30 14:03 32.69408 -8.10438 14054 ft 399 kts
2026-04-30 14:03 32.72140 -8.09991 13452 ft 396 kts
2026-04-30 14:04 32.74850 -8.09546 12855 ft 394 kts
2026-04-30 14:04 32.77555 -8.09102 12252 ft 391 kts
2026-04-30 14:04 32.80253 -8.08658 11681 ft 387 kts
2026-04-30 14:04 32.82889 -8.08225 11131 ft 384 kts
2026-04-30 14:05 32.85521 -8.07791 10567 ft 381 kts
2026-04-30 14:05 32.88089 -8.07100 9996 ft 378 kts 18°
2026-04-30 14:05 32.90500 -8.05855 9559 ft 372 kts 28°
2026-04-30 14:05 32.92668 -8.04222 9132 ft 366 kts 36°
2026-04-30 14:06 32.94613 -8.02318 8563 ft 364 kts 43°
2026-04-30 14:06 32.97990 -7.97910 7398 ft 357 kts 52°
2026-04-30 14:07 33.00767 -7.93132 6233 ft 346 kts 59°
2026-04-30 14:07 33.01979 -7.90694 5609 ft 342 kts 61°
2026-04-30 14:07 33.03083 -7.88251 5035 ft 337 kts 63°
2026-04-30 14:08 33.05048 -7.83250 3816 ft 330 kts 66°
2026-04-30 14:08 33.05865 -7.80778 3657 ft 311 kts 71°
2026-04-30 14:08 33.06623 -7.76083 3824 ft 274 kts 79°
2026-04-30 14:09 33.06940 -7.73902 3668 ft 266 kts 78°
2026-04-30 14:09 33.07264 -7.71797 3697 ft 250 kts 77°
2026-04-30 14:09 33.07995 -7.67891 3482 ft 232 kts 72°
2026-04-30 14:10 33.08486 -7.66118 3484 ft 218 kts 67°
2026-04-30 14:10 33.08982 -7.64526 3625 ft 197 kts 68°
2026-04-30 14:10 33.09565 -7.63066 3655 ft 185 kts 52°
2026-04-30 14:10 33.10308 -7.61878 3655 ft 180 kts 50°
2026-04-30 14:11 33.11106 -7.60695 3614 ft 180 kts 51°
2026-04-30 14:11 33.11824 -7.59549 3783 ft 170 kts 51°
2026-04-30 14:11 33.12606 -7.58349 3739 ft 194 kts 50°
2026-04-30 14:11 33.13505 -7.57062 3705 ft 202 kts 50°
2026-04-30 14:12 33.14314 -7.55775 3678 ft 190 kts 51°
2026-04-30 14:12 33.15120 -7.54518 3376 ft 193 kts 50°
2026-04-30 14:12 33.16003 -7.53465 3427 ft 168 kts 33°
2026-04-30 14:12 33.16688 -7.53111 3325 ft 160 kts
2026-04-30 14:13 33.18053 -7.52963 3293 ft 138 kts
2026-04-30 14:13 33.18982 -7.53101 3144 ft 133 kts 349°
2026-04-30 14:13 33.19910 -7.53378 3052 ft 140 kts 343°
2026-04-30 14:13 33.20880 -7.53720 2974 ft 151 kts 346°
2026-04-30 14:14 33.21927 -7.54067 3020 ft 160 kts 346°
2026-04-30 14:14 33.22996 -7.54372 3226 ft 156 kts 348°
2026-04-30 14:14 33.24089 -7.54657 3126 ft 170 kts 348°
2026-04-30 14:14 33.25246 -7.54992 2913 ft 170 kts 345°
2026-04-30 14:15 33.26408 -7.55387 2600 ft 172 kts 345°
2026-04-30 14:15 33.27526 -7.55780 2176 ft 172 kts 346°
2026-04-30 14:15 33.28646 -7.56154 1910 ft 161 kts 349°
2026-04-30 14:15 33.29744 -7.56409 1670 ft 161 kts 348°
2026-04-30 14:16 33.30815 -7.56807 1624 ft 155 kts 345°
2026-04-30 14:16 33.31845 -7.57173 1435 ft 154 kts 344°
2026-04-30 14:16 33.32877 -7.57523 1155 ft 149 kts 349°
2026-04-30 14:16 33.33844 -7.57816 915 ft 140 kts 345°
2026-04-30 14:17 33.34738 -7.58108 785 ft 129 kts 345°
2026-04-30 14:17 33.35585 -7.58406 663 ft 119 kts 347°
2026-04-30 14:17 33.36318 -7.58643 657 ft 99 kts 341°
2026-04-30 14:17 33.36826 -7.58806 653 ft 42 kts 345°
2026-04-30 14:18 33.37088 -7.58905 653 ft 37 kts 343°
2026-04-30 14:18 33.37324 -7.58969 653 ft 32 kts 357°
2026-04-30 14:18 33.37675 -7.58896 649 ft 11 kts 15°
2026-04-30 14:19 33.37830 -7.58842 649 ft 13 kts 18°
2026-04-30 14:19 33.37895 -7.58765 649 ft 14 kts 68°
2026-04-30 14:19 33.37897 -7.58646 650 ft 15 kts 118°
2026-04-30 14:20 33.37829 -7.58539 649 ft 16 kts 131°
2026-04-30 14:20 33.37735 -7.58479 650 ft 15 kts 152°
2026-04-30 14:20 33.37659 -7.58383 652 ft 1 kts 126°
2026-04-30 14:21 33.37651 -7.58370 652 ft 2 kts 125°
2026-04-30 14:21 33.37642 -7.58354 652 ft 2 kts 123°
2026-04-30 14:21 33.37641 -7.58353 652 ft 0 kts 123°